Location: ?????
(37.7324°N, 23.9257°E)
Time: 22:03:19
(UTC+00:00)

RESURS DK-1 - Pass Details

Date: 29 November 2020
Orbit: 556 x 561 km, 69.9° (Epoch: 18 January)

Event Time Altitude Azimuth Distance (km) Brightness Sun altitude
Exits shadow 04:27:15 - 248° (WSW) 2,135 4.9 -10.3°
Reaches altitude 10° 04:28:12 10° 256° (WSW) 1,846 4.5 -10.1°
Maximum altitude 04:31:14 20° 303° (WNW) 1,342 3.7 -9.5°
Drops below altitude 10° 04:34:17 10° 351° (N) 1,856 4.7 -8.9°
Sets 04:37:00 0° 9° (N) 2,756 5.8 -8.4°
